Location: Neuwirthshaus
(50.1951°N, 9.8396°E)
Time: 10:57:08
(UTC+00:00)

Daily predictions for brighter satellites

Satellite Brightness Start Highest point End
(mag) Time Altitude Azimuth Time Altitude Azimuth Time Altitude Azimuth
Cosmos 1892 Rocket 3.6 19:31:48 10° N 19:36:08 87° W 19:40:26 10° S
Cosmos 1455 Rocket 3.0 19:32:04 10° S 19:36:27 76° E 19:40:50 10° NNE
USA 306 2.0 19:33:19 10° WSW 19:36:45 73° NNW 19:39:09 10° ENE
CZ-4B R/B 4.3 19:35:47 10° ESE 19:38:13 19° ENE 19:40:43 10° NNE
Okean O Rocket 2.0 19:35:00 10° SE 19:39:08 49° ENE 19:43:18 10° N
Cosmos 2100 Rocket 4.4 19:34:42 10° SSW 19:40:56 70° WNW 19:47:17 10° N
Meteor 1-27 4.2 19:36:43 10° S 19:42:20 77° E 19:47:55 10° NNE
Cosmos 2228 3.0 19:38:39 10° S 19:42:39 56° E 19:46:41 10° NNE
NOSS 3-4 (A) 4.3 19:36:43 10° NW 19:42:56 50° NE 19:50:15 10° ESE
SL-24 R/B 4.4 19:38:41 10° NNE 19:42:58 78° WNW 19:47:39 10° SSW
SPOT 5 4.5 19:39:23 10° SSW 19:43:12 30° W 19:47:07 10° NNW
SL-16 R/B 2.7 19:37:47 10° NNW 19:43:19 49° NE 19:48:47 10° SE
NOSS 3-4 (C) 4.4 19:37:20 10° NW 19:43:35 50° NE 19:50:55 10° ESE
USA 186 2.3 19:41:15 10° SE 19:43:45 33° ENE 19:46:18 10° N
Okean 1 Rocket 4.4 19:44:42 10° SSW 19:48:55 44° WNW 19:53:12 10° N
Cosmos 1544 Rocket 4.4 19:46:21 10° SSE 19:50:08 31° E 19:53:57 10° NNE
Cosmos 2084 Rocket 4.2 19:47:04 10° NW 19:51:06 46° SW 19:55:10 10° SSE
Cosmos 2233 Rocket 4.0 19:45:17 10° S 19:51:24 67° E 19:57:30 10° NNE
ATLAS 2AS CENTAUR R/B 4.3 19:46:10 10° W 19:52:33 38° NNW 19:58:52 10° NE
SKYMED 3 4.3 19:53:06 10° NNE 19:57:05 85° ESE 20:01:03 10° SSW
CZ-2C R/B 4.3 19:56:05 10° E 19:57:28 13° ENE 19:58:51 10° NNE
COSMOS 2406 3.6 19:53:12 10° S 19:58:36 45° ESE 20:04:02 10° NE
Cosmos 1980 Rocket 3.5 19:53:32 10° NW 19:58:44 37° WSW 20:03:54 10° S
Okean-O 2.6 19:55:33 10° SSE 19:59:55 76° ENE 20:04:18 10° N
Cosmos 1782 2.7 19:56:35 10° SSW 20:00:05 73° W 20:03:37 10° N
CZ-4 R/B 3.2 19:57:25 10° SSW 20:00:28 25° W 20:03:33 10° NW
Ariane Rocket 3.8 19:58:02 10° SE 20:02:35 38° ENE 20:07:15 10° N
Meteor 1-20 Rocket 4.4 19:59:01 10° N 20:04:32 57° ENE 20:09:56 11° SSE
Cosmos 1933 4.1 20:02:11 11° SSE 20:05:23 30° E 20:08:45 10° NNE
SPOT 3 Rocket 3.9 20:01:10 11° SE 20:06:00 50° ENE 20:10:58 10° N
Cosmos 1758 Rocket 3.7 20:02:04 10° N 20:06:25 60° ENE 20:10:37 11° SSE
Spot 2 Rocket 3.5 20:02:52 10° SSE 20:07:53 85° WSW 20:12:58 10° NNW
Cosmos 1725 Rocket 4.4 20:03:56 10° SSW 20:10:09 67° WNW 20:16:23 10° N
Cosmos 2333 Rocket 2.4 20:05:31 10° NNW 20:11:13 67° ENE 20:16:16 13° SE
ERS-1 Rocket 4.3 20:09:27 10° SSW 20:14:06 38° W 20:18:48 10° NNW
Tsikada Rocket 4.2 20:12:02 10° NNW 20:18:11 71° W 20:24:17 10° S
Cosmos 2360 Rocket 2.6 20:19:32 10° NNW 20:25:07 52° NE 20:29:39 15° SE
USA 245 4.3 20:19:40 12° SSE 20:25:12 77° ENE 20:30:44 10° N
Cosmos 1461 2.6 20:22:56 10° SSW 20:26:32 52° SE 20:30:08 10° NE
CZ-4B R/B 4.4 20:21:54 10° SSW 20:27:11 40° W 20:32:28 10° NNW
CZ-4B R/B 3.5 20:25:36 15° SSE 20:29:26 64° ENE 20:34:15 10° N
CZ-4C R/B 3.7 20:26:20 10° W 20:30:37 37° NNW 20:36:05 10° NE
Cosmos 1602 Rocket 3.6 20:26:21 10° N 20:30:39 61° ENE 20:33:50 17° SSE
Cosmos 1992 Rocket 4.1 20:25:59 10° SSW 20:31:12 82° WNW 20:36:26 10° NNE
YAOGAN 11 4.2 20:29:20 10° NNE 20:33:47 81° WNW 20:38:14 10° SSW
Cosmos 1777 Rocket 4.2 20:32:13 10° NNW 20:37:26 61° ENE 20:41:09 19° SE
ISS -3.4 20:34:08 10° W 20:37:28 66° N 20:40:49 10° E
Cosmos 2219 Rocket 2.9 20:33:04 10° NNW 20:38:29 44° NE 20:42:48 16° ESE
Meteor 1-25 Rocket 4.2 20:33:36 10° N 20:39:18 79° ENE 20:43:46 16° SSE
Cosmos 220 Rocket 4.0 20:36:01 11° S 20:39:45 52° ESE 20:43:45 10° NNE
Cosmos 1437 Rocket 2.4 20:36:40 12° S 20:39:57 80° E 20:43:34 10° NNE
USA 290 3.5 20:39:45 21° ESE 20:40:05 22° ESE 20:42:33 10° NE
SL-08 R/B 4.4 20:39:21 10° N 20:43:59 47° WNW 20:48:31 10° SW
Cosmos 1503 Rocket 4.3 20:40:48 10° NNW 20:45:56 56° ENE 20:49:23 20° SE
Cosmos 1626 Rocket 4.3 20:42:43 10° NNW 20:46:57 50° W 20:51:00 11° SSW
DEBRIS 3.6 20:43:54 10° W 20:47:13 83° S 20:57:57 10° E
Cosmos 2098 Rocket 3.3 20:44:23 17° SSE 20:47:51 54° E 20:51:55 10° NNE
Cosmos 1076 Rocket 4.3 20:45:19 10° N 20:49:17 36° ENE 20:51:27 22° SE
NOSS 3-3 (A) 4.2 20:44:35 10° SW 20:49:51 67° NW 20:56:17 10° NE
Terra 4.1 20:48:36 10° SW 20:51:59 19° W 20:55:23 10° NW
Cosmos 2151 3.5 20:50:57 10° NNW 20:54:58 53° W 20:58:09 15° SSW
Cosmos 2322 Rocket 2.2 20:51:16 10° NNW 20:56:59 88° ENE 21:00:46 22° SSE
Cosmos 1486 Rocket 4.0 20:51:47 10° NNW 20:57:05 86° WSW 21:00:35 22° SSE
Cosmos 1513 Rocket 4.5 20:51:22 10° S 20:57:35 87° E 21:03:45 10° N
IRS-1C Rocket 4.1 20:53:40 18° SSE 20:57:39 80° WSW 21:02:57 10° NNW
Cosmos 1464 Rocket 4.0 20:53:50 16° S 20:58:44 64° E 21:04:51 10° NNE
Cosmos 1354 Rocket 4.4 20:55:05 10° NNW 21:00:13 52° ENE 21:03:26 22° SE
Cosmos 2082 Rocket 3.7 20:56:28 10° WSW 21:01:50 40° NW 21:07:12 10° NNE
USA 306 3.3 21:01:31 10° WNW 21:03:49 25° NNW 21:04:50 16° NE
Meteor 2-10 4.2 20:59:40 10° NNW 21:05:27 84° ENE 21:09:14 22° SSE
Cosmos 1606 Rocket 3.6 21:03:17 24° S 21:05:46 61° E 21:10:01 10° NNE
CZ-4B R/B 3.7 21:09:42 18° SSW 21:11:44 35° W 21:14:58 10° NNW
Cosmos 1766 4.0 21:09:30 10° NNE 21:12:20 27° ENE 21:13:02 25° E
USA 186 4.3 21:12:10 10° WSW 21:13:16 12° W 21:14:23 10° WNW
Cosmos 1726 Rocket 3.5 21:12:35 31° SSE 21:14:14 53° E 21:18:12 10° NNE
Cosmos 2237 Rocket 4.3 21:10:31 10° N 21:14:33 19° NE 21:18:35 10° E
Cosmos 1428 Rocket 4.5 21:08:52 10° N 21:15:08 83° E 21:19:09 23° SSE
Okean O Rocket 3.7 21:12:22 10° SW 21:15:34 20° W 21:18:49 10° NW
Cosmos 540 Rocket 3.8 21:13:17 25° SSE 21:15:50 45° ESE 21:20:44 10° NE
Cosmos 1092 Rocket 4.4 21:10:56 10° N 21:16:56 50° ENE 21:20:29 24° SE
Aureole 1 Rocket 4.3 21:12:56 10° NNW 21:18:28 53° ENE 21:22:39 22° SE
Cosmos 1805 3.6 21:17:50 10° NNW 21:20:59 44° W 21:22:21 27° SSW
Cosmos 2278 4.4 21:17:24 10° NW 21:22:51 46° WSW 21:26:23 21° S
COSMOS 2428 3.8 21:21:00 10° NNW 21:26:17 37° NE 21:30:12 17° ESE
SL-16 R/B 3.4 21:22:10 10° NW 21:27:14 34° WSW 21:30:55 17° SSW
CZ-2C R/B 3.2 21:27:14 28° SW 21:27:56 33° W 21:30:31 10° NNW
Okean 1-7 Rocket 4.0 21:23:43 10° NNW 21:28:07 59° W 21:30:35 25° SSW
Geosat 4.2 21:28:11 10° NE 21:33:02 48° ESE 21:35:08 30° S
NOSS 3-4 (A) 4.1 21:27:28 10° NW 21:34:04 57° SW 21:38:39 25° SSE
NOSS 3-4 (C) 4.1 21:28:07 10° NW 21:34:43 57° SW 21:39:17 25° SSE
Cosmos-2242 3.2 21:34:03 37° SE 21:35:14 50° E 21:39:14 10° NNE
Cosmos 2034 Rocket 4.0 21:32:54 23° S 21:37:09 81° E 21:43:30 10° N
Ariane Rocket 4.2 21:38:07 17° SSW 21:41:29 35° W 21:46:08 10° NNW
USA 234 4.3 21:41:57 10° ENE 21:47:00 23° SE 21:47:11 23° SE
TSX-5 3.8 21:46:26 10° NNW 21:49:29 48° NE 21:50:06 41° E
Cosmos 2333 Rocket 3.8 21:50:32 10° NW 21:55:01 24° WSW 21:58:17 15° SW
Helios 1B rocket 2.0 21:55:11 55° SE 21:55:46 68° ENE 21:59:16 10° N
Cosmos 2279 Rocket 4.4 21:53:17 30° SE 21:56:01 48° E 22:01:59 10° NNE
Cosmos 1763 Rocket 3.6 21:53:12 20° SSW 21:56:56 79° WNW 22:02:15 10° NNE
Okean 1 4.1 21:56:18 24° SW 21:57:57 40° WNW 22:01:22 10° N
Cosmos 1470 3.1 21:54:52 10° N 21:57:58 37° ENE 21:58:12 36° E
Cosmos 1536 2.5 21:54:49 10° N 21:58:31 83° ENE 21:59:12 57° SSE
Cosmos 2221 3.5 21:59:07 28° ESE 21:59:39 29° E 22:03:17 10° NNE
Cosmos 1707 2.0 21:59:51 75° NNW 21:59:51 75° NNW 22:02:32 10° N
Cosmos 1898 Rocket 3.8 21:54:36 10° NNW 21:59:44 57° ENE 22:02:03 31° SE
Cosmos 1634 Rocket 4.0 21:57:45 31° S 22:00:49 71° E 22:07:00 10° NNE
CSL-04 DEB 4.1 22:01:35 55° SE 22:02:12 70° ENE 22:05:50 10° N
Cosmos 2297 Rocket 3.7 22:01:44 18° ESE 22:02:28 19° E 22:06:18 10° ENE
Cosmos 1833 4.2 21:57:58 17° SSW 22:02:29 81° WNW 22:08:09 10° NNE
CZ-2C R/B 4.2 21:59:07 10° NNE 22:03:21 41° E 22:04:14 37° SE
Cosmos 1953 Rocket 4.0 21:59:09 10° NNW 22:03:23 51° W 22:04:56 34° SSW
Cosmos 990 Rocket 4.5 21:59:51 10° NNW 22:04:51 50° WSW 22:06:54 32° SSW
Cosmos 44 3.5 21:59:30 10° NW 22:04:55 75° SW 22:06:56 38° SSE
Cosmos 2360 Rocket 3.4 22:03:55 10° NW 22:08:50 31° WSW 22:11:23 22° SSW
Meteor 2-6 Rocket 4.4 22:08:15 34° SSE 22:10:49 65° E 22:16:43 10° NNE
Cosmos 2322 3.7 22:05:28 10° NNW 22:11:12 76° ENE 22:13:46 34° SE
USA 290 4.2 22:12:10 15° WSW 22:14:04 26° WNW 22:16:47 10° N
ISS -3.9 22:11:01 10° WNW 22:14:19 83° SW 22:14:19 83° SW
Cosmos 2026 Rocket 4.4 22:08:37 10° NNW 22:14:53 59° W 22:18:17 27° SSW
Cosmos 2058 Rocket 3.1 22:14:25 40° SSW 22:15:53 74° W 22:20:14 10° N
GP-B 4.4 22:14:09 10° NNE 22:17:55 27° E 22:18:52 25° ESE
SAR-Lupe-2 4.4 22:20:01 35° E 22:20:18 35° ENE 22:23:23 10° N
Helios 1A 3.3 22:17:18 10° N 22:21:10 57° WNW 22:22:30 36° SW
Cosmos 2219 Rocket 3.0 22:17:10 10° NW 22:22:22 38° WSW 22:24:29 28° SSW
Cosmos 2266 Rocket 4.4 22:18:12 10° N 22:24:05 51° ENE 22:26:50 30° SE
Cosmos 1975 2.6 22:21:23 10° N 22:25:03 63° ENE 22:25:24 59° ESE
KORONAS-FOTON 3.6 22:25:06 60° WSW 22:25:24 65° WNW 22:28:46 10° N
Cosmos 841 Rocket 3.7 22:28:15 42° SSE 22:29:37 54° ESE 22:34:43 10° NNE
RESURS DK-1 2.1 22:28:03 10° NNW 22:32:03 85° WSW 22:32:35 65° SSE
ARIANE 5 R/B 2.5 22:32:16 51° SSE 22:33:23 90° NE 22:37:53 10° NNW
Meteor 1-19 Rocket 4.4 22:32:11 38° SSE 22:34:17 61° E 22:40:08 10° NNE
ALOS 2 2.6 22:33:58 51° SSE 22:35:02 78° ENE 22:39:27 10° NNW
Cosmos 2322 Rocket 4.1 22:36:40 10° WNW 22:40:14 17° W 22:42:34 14° SW
Cosmos 1271 Rocket 2.6 22:46:13 59° W 22:46:21 60° WNW 22:49:43 10° N
Cosmos 372 Rocket 4.4 22:41:39 10° NNW 22:46:33 48° WSW 22:47:53 39° SSW
SL-16 R/B 4.2 22:42:31 10° NNW 22:47:09 25° NE 22:51:46 10° E
Cosmos 1842 3.5 22:47:39 43° WNW 22:47:40 43° WNW 22:50:43 10° N
Lacrosse 4 Rocket 3.1 22:51:57 20° E 22:51:57 20° E 22:54:17 10° ENE
Spot 4 4.0 22:51:57 46° SSW 22:53:11 62° WSW 22:57:57 10° NNW
Meteor 2-9 Rocket 4.2 22:48:44 10° NNW 22:54:06 66° W 22:55:56 41° SSW
Cosmos 1766 Rocket 4.4 22:50:09 10° N 22:54:13 39° ENE 22:55:19 33° ESE
PSLV R/B 3.5 22:50:54 10° NNE 22:55:12 74° ESE 22:55:59 57° SSE
Cosmos 2237 Rocket 2.3 22:53:58 10° NNW 22:59:40 71° ENE 23:02:17 33° SE
CZ-2C R/B 3.0 22:58:57 33° SE 23:01:08 56° ENE 23:06:14 10° N
BREEZE-M DEB (TANK) 4.0 22:47:19 10° WSW 23:01:56 85° SSE 23:05:37 10° ENE
Cosmos 1980 3.7 22:58:08 10° NNW 23:03:50 80° ENE 23:06:13 36° SE
ARGOS Delta rocket 4.1 22:59:27 10° N 23:04:37 79° WNW 23:06:31 41° SSW
Cosmos 858 Rocket 4.4 22:59:58 10° NNW 23:05:09 84° WSW 23:06:42 47° SSE
Cosmos 1937 Rocket 3.6 23:03:10 10° NNW 23:08:13 58° WSW 23:09:27 45° SSW
COSMOS 2428 3.1 23:05:13 10° NW 23:10:40 48° WSW 23:12:11 38° SSW
Cosmos 2227 Rocket 3.4 23:11:04 25° SE 23:12:20 27° ESE 23:17:03 10° NE
NOSS 0 Rocket 4.0 23:07:18 10° NW 23:13:22 60° WSW 23:15:26 40° S
Meteor 2-4 Rocket 4.1 23:11:49 37° SE 23:13:30 49° E 23:18:49 10° NNE
Meteor 1-11 Rocket 3.7 23:08:16 10° NNW 23:13:55 70° W 23:15:45 42° SSW
MetOp-A 3.8 23:18:10 50° S 23:19:26 79° WSW 23:24:09 10° NNW
Meteor 1-10 Rocket 4.4 23:17:23 38° SSW 23:19:46 78° WNW 23:25:45 10° N
Cosmos 2263 Rocket 3.7 23:20:54 19° ESE 23:22:18 21° E 23:26:22 10° NE
Cosmos 1238 Rocket 2.8 23:25:54 61° SE 23:26:23 68° E 23:30:42 10° NNE
Cosmos 1812 Rocket 4.0 23:25:18 41° WSW 23:26:24 52° WNW 23:30:44 10° N
USA 234 3.2 23:24:15 10° ENE 23:30:48 70° SE 23:34:29 28° SW
SeaSat 1 2.9 23:28:37 26° SE 23:31:18 59° NE 23:36:07 10° NNW
CZ-2C R/B 3.3 23:27:45 10° NNE 23:33:33 89° W 23:35:48 40° SSW
Meteor 1-27 Rocket 3.7 23:32:34 41° SSW 23:34:45 87° WNW 23:40:32 10° NNE
ACS3 Solar Sail 2.6 23:29:14 10° NNE 23:34:47 38° E 23:37:20 27° SE
Cosmos 2221 3.8 23:35:23 26° WSW 23:36:37 30° WNW 23:40:22 10° N
ATLAS 2AS CENTAUR R/B 4.1 23:31:48 10° NW 23:38:04 38° NNE 23:44:19 10° E
Meteor 2-20 Rocket 4.2 23:37:28 41° S 23:39:35 88° E 23:45:20 10° N
BlueWalker 3 3.2 23:41:17 26° E 23:41:17 26° E 23:43:10 10° ENE
Cosmos 2297 Rocket 2.2 23:43:29 38° SW 23:45:47 82° WNW 23:51:29 10° NNE
Cosmos 1125 Rocket 4.5 23:41:46 10° NNW 23:46:50 44° ENE 23:50:47 16° SE
Okean 3 Rocket 4.1 23:43:21 10° N 23:47:48 54° ENE 23:49:21 36° SE
Landsat 5 3.3 23:46:59 10° NNE 23:51:05 74° ESE 23:51:40 61° SSE
Cosmos 1340 Rocket 4.3 23:48:19 10° N 23:51:41 28° ENE 23:53:20 21° ESE
Cosmos 1842 Rocket 3.5 23:53:33 53° SSE 23:54:29 75° E 23:58:55 10° NNE
GP-B 4.1 23:51:00 10° NNW 23:54:59 35° W 23:56:01 30° WSW
